sat.trackr.live / text

‹ back to catalog

STARLINK-2432

NORAD 47840 · 2021-018BF

PAYLOAD ACTIVE UNKNOWN

§ Identity

Operator
Country
US
Launch date
2021-03-11
Launch site
AFETR
Launch vehicle
Mass (kg)
RCS (m²)

Purposes: comms

External: N2YO · Heavens-Above · Gunter

§ Orbital elements

Epoch: 2026-09-19T23:57:12.543840Z

Period
94.01 min
Inclination
53.1577°
Eccentricity
0.0001053
Mean motion
15.31704199 rev/d
Perigee alt
470.0 km
Apogee alt
471.4 km
Semi-major
6,848.9 km
B*
9.9637e-6
RAAN
54.9427°
Arg perigee
143.6097°
Mean anomaly
216.4977°
Rev number
30,653

§ Raw data

STARLINK-24321 47840U 21018BF  26262.99806185 -.00000056  00000+0  99637-5 0  99992 47840  53.1577  54.9427 0001053 143.6097 216.4977 15.31704199306536

JSON: /api/v1/satellites/47840 · /tle

For live sub-satellite position, see the globe view (requires WebGL).

§ Visibility from observer

Set your observer location to see the next 7 days of passes ≥ 10°. The values pass through the URL so the page stays shareable.

No JS? Fill the form by hand. The geolocation button needs JavaScript.